Year,Month,Day,Hour,Minute,Value (Times are PST for temperature in C)
2015,05,26,06,25,11.70
2015,05,26,06,26,11.70
2015,05,26,06,27,11.70
2015,05,26,06,28,11.70
2015,05,26,06,29,11.70
2015,05,26,06,30,11.70
2015,05,26,06,31,11.70
2015,05,26,06,32,11.70
2015,05,26,06,33,11.70
2015,05,26,06,34,11.70
2015,05,26,06,35,11.70
2015,05,26,06,36,11.70
2015,05,26,06,37,11.70
2015,05,26,12,55,17.50
2015,05,26,12,56,17.70
2015,05,26,12,57,17.80
2015,05,26,12,58,17.90
2015,05,26,12,59,17.90
2015,05,26,13,00,18.10
2015,05,26,13,01,18.20
2015,05,26,13,02,18.20
2015,05,26,13,03,18.20
2015,05,26,13,04,18.30
2015,05,26,13,05,18.30
2015,05,26,13,06,18.40
2015,05,26,13,07,18.40
2015,05,26,13,08,18.50
2015,05,26,13,09,18.60
2015,05,26,13,10,18.60
2015,05,26,13,11,18.50
2015,05,26,13,12,18.50
2015,05,26,13,13,18.50
2015,05,26,13,14,18.50
2015,05,26,13,15,18.50
2015,05,26,13,16,18.50
2015,05,26,13,17,18.50
2015,05,26,13,18,18.50
2015,05,26,13,19,18.60
2015,05,26,13,20,18.50
2015,05,26,13,21,18.60
2015,05,26,13,22,18.70
2015,05,26,13,23,18.70
2015,05,26,13,24,18.80
2015,05,26,13,25,18.80
2015,05,26,13,26,18.80
2015,05,26,13,27,18.70
2015,05,26,13,28,18.80
2015,05,26,13,29,18.80
2015,05,26,13,30,18.80
2015,05,26,13,31,18.70
2015,05,26,13,32,18.70
2015,05,26,13,33,18.70
2015,05,26,13,34,18.70
2015,05,26,13,35,18.60
2015,05,26,13,36,18.70
2015,05,26,13,37,18.70
2015,05,26,13,38,18.70
2015,05,26,13,39,18.70
2015,05,26,13,40,18.70
2015,05,26,13,41,18.90
2015,05,26,13,42,18.90
2015,05,26,13,43,19.00
2015,05,26,13,44,19.10
2015,05,26,13,45,19.10
2015,05,26,13,46,19.10
2015,05,26,13,47,19.30
2015,05,26,13,48,19.30
2015,05,26,13,49,19.40
2015,05,26,13,50,19.40
2015,05,26,13,51,19.50
2015,05,26,13,52,19.50
2015,05,26,13,53,19.60
2015,05,26,13,54,19.60
2015,05,26,13,55,19.70
2015,05,26,13,56,19.70
2015,05,26,13,57,19.70
2015,05,26,13,58,19.70
2015,05,26,13,59,19.70
2015,05,26,14,00,19.70
2015,05,26,14,01,19.70
2015,05,26,14,02,19.70
2015,05,26,14,03,19.70
2015,05,26,14,04,19.70
2015,05,26,14,05,19.70
2015,05,26,14,06,19.70
2015,05,26,14,07,19.70
2015,05,26,14,08,19.80
2015,05,26,14,09,19.80
2015,05,26,14,10,19.70
2015,05,26,14,11,19.60
2015,05,26,14,12,19.50
2015,05,26,14,13,19.50
2015,05,26,14,14,19.50
2015,05,26,14,15,19.60
2015,05,26,14,16,19.60
2015,05,26,14,17,19.50
2015,05,26,14,18,19.40
2015,05,26,14,19,19.40
2015,05,26,14,20,19.30
2015,05,26,14,21,19.20
2015,05,26,14,22,19.10
2015,05,26,14,23,19.10
2015,05,26,14,24,19.10
2015,05,26,14,25,19.10
2015,05,26,14,26,19.10
2015,05,26,14,27,19.00
2015,05,26,14,28,18.90
2015,05,26,14,29,18.90
2015,05,26,14,30,18.90
2015,05,26,14,31,18.90
2015,05,26,14,32,18.90
2015,05,26,14,33,18.90
2015,05,26,14,34,18.90
2015,05,26,14,35,18.90
2015,05,26,14,36,18.90
2015,05,26,14,37,18.90
2015,05,26,14,38,18.90
2015,05,26,14,39,18.80
2015,05,26,14,40,18.80
2015,05,26,14,41,18.90
2015,05,26,14,42,18.90
2015,05,26,14,43,19.00
2015,05,26,14,44,19.10
2015,05,26,14,45,19.10
2015,05,26,14,46,19.10
2015,05,26,14,47,19.20
2015,05,26,14,48,19.30
2015,05,26,14,49,19.30
2015,05,26,14,50,19.30
2015,05,26,14,51,19.30
2015,05,26,14,52,19.20
2015,05,26,14,53,19.20
2015,05,26,14,54,19.40
2015,05,26,14,55,19.50
2015,05,26,14,56,19.60
2015,05,26,14,57,19.60
2015,05,26,14,58,19.70
2015,05,26,14,59,19.80
2015,05,26,15,00,19.80
2015,05,26,15,01,19.90
2015,05,26,15,02,20.00
2015,05,26,15,03,20.20
2015,05,26,15,04,20.30
2015,05,26,15,05,20.50
2015,05,26,15,06,20.60
2015,05,26,15,07,20.70
2015,05,26,15,08,20.80
2015,05,26,15,09,20.90
2015,05,26,15,10,20.90
2015,05,26,15,11,20.80
2015,05,26,15,12,20.80
2015,05,26,15,13,20.80
2015,05,26,15,14,20.70
2015,05,26,15,15,20.70
2015,05,26,15,16,20.60
2015,05,26,15,17,20.50
2015,05,26,15,18,20.40
2015,05,26,15,19,20.30
2015,05,26,15,20,20.40
2015,05,26,15,21,20.40
2015,05,26,15,22,20.40
2015,05,26,15,23,20.40
2015,05,26,15,24,20.40
2015,05,26,15,25,20.30
2015,05,26,15,26,20.20
2015,05,26,15,27,20.30
2015,05,26,15,28,20.40
2015,05,26,15,29,20.60
2015,05,26,15,30,20.80
2015,05,26,15,31,20.80
2015,05,26,15,32,20.80
2015,05,26,15,33,20.90
2015,05,26,15,34,21.00
2015,05,26,15,35,21.00
2015,05,26,15,36,20.90
2015,05,26,15,37,20.80
2015,05,26,15,38,20.80
2015,05,26,15,39,20.70
2015,05,26,15,40,20.60
2015,05,26,15,41,20.50
2015,05,26,15,42,20.40
2015,05,26,15,43,20.30
2015,05,26,15,44,20.30
2015,05,26,15,45,20.30
2015,05,26,15,46,20.20
2015,05,26,15,47,20.20
2015,05,26,15,48,20.20
2015,05,26,15,49,20.20
2015,05,26,15,50,20.20
2015,05,26,15,51,20.30
2015,05,26,15,52,20.40
2015,05,26,15,53,20.40
2015,05,26,15,54,20.30
2015,05,26,15,55,20.30
2015,05,26,15,56,20.20
2015,05,26,15,57,20.20
2015,05,26,15,58,20.20
2015,05,26,15,59,20.20
2015,05,26,16,00,20.10
2015,05,26,16,01,20.10
2015,05,26,16,02,20.00
2015,05,26,16,03,19.90
2015,05,26,16,04,19.90
2015,05,26,16,05,19.90
2015,05,26,16,06,19.90
2015,05,26,16,07,19.90
2015,05,26,16,08,20.00
2015,05,26,16,09,20.10
2015,05,26,16,10,20.10
2015,05,26,16,11,20.10
2015,05,26,16,12,19.90
2015,05,26,16,13,20.00
2015,05,26,16,14,19.90
2015,05,26,16,15,19.90
2015,05,26,16,16,19.90
2015,05,26,16,17,19.90
2015,05,26,16,18,19.90
2015,05,26,16,19,19.90
2015,05,26,16,20,19.80
2015,05,26,16,21,19.80
2015,05,26,16,22,19.70
2015,05,26,16,23,19.70
2015,05,26,16,24,19.70
2015,05,26,16,25,19.70
2015,05,26,16,26,19.70
2015,05,26,16,27,19.70
2015,05,26,16,28,19.70
2015,05,26,16,29,19.70
2015,05,26,16,30,19.70
2015,05,26,16,31,19.70
2015,05,26,16,32,19.70
2015,05,26,16,33,19.70
2015,05,26,16,34,19.70
2015,05,26,16,35,19.70
2015,05,26,16,36,19.70
2015,05,26,16,37,19.70
2015,05,26,16,38,19.70
2015,05,26,16,39,19.70
2015,05,26,16,40,19.60
2015,05,26,16,41,19.70
2015,05,26,16,42,19.70
2015,05,26,16,43,19.70
2015,05,26,16,44,19.70
2015,05,26,16,45,19.70
2015,05,26,16,46,19.70
2015,05,26,16,47,19.70
2015,05,26,16,48,19.70
2015,05,26,16,49,19.70
2015,05,26,16,50,19.60
2015,05,26,16,51,19.60
2015,05,26,16,52,19.60
2015,05,26,16,53,19.60
2015,05,26,16,54,19.60
2015,05,26,16,55,19.60
2015,05,26,16,56,19.60
2015,05,26,16,57,19.60
2015,05,26,16,58,19.60
2015,05,26,16,59,19.60
2015,05,26,17,00,19.60
2015,05,26,17,01,19.60
2015,05,26,17,02,19.60
2015,05,26,17,03,19.60
2015,05,26,17,04,19.60
2015,05,26,17,05,19.60
2015,05,26,17,06,19.60
2015,05,26,17,07,19.60
2015,05,26,17,08,19.60
2015,05,26,17,09,19.60
2015,05,26,17,10,19.60
2015,05,26,17,11,19.70
2015,05,26,17,12,19.60
2015,05,26,17,13,19.60
2015,05,26,17,14,19.50
2015,05,26,17,15,19.50
2015,05,26,17,16,19.50
2015,05,26,17,17,19.50
2015,05,26,17,18,19.50
2015,05,26,17,19,19.50
2015,05,26,17,20,19.40
2015,05,26,17,21,19.50
2015,05,26,17,22,19.50
2015,05,26,17,23,19.50
2015,05,26,17,24,19.50
2015,05,26,17,25,19.50
2015,05,26,17,26,19.50
2015,05,26,17,27,19.50
2015,05,26,17,28,19.40
2015,05,26,17,29,19.40
2015,05,26,17,30,19.30
2015,05,26,17,31,19.30
2015,05,26,17,32,19.20
2015,05,26,17,33,19.20
2015,05,26,17,34,19.10
2015,05,26,17,35,19.10
2015,05,26,17,36,19.10
2015,05,26,17,37,19.10
2015,05,26,17,38,19.10
2015,05,26,17,39,19.10
2015,05,26,17,40,19.10
2015,05,26,17,41,19.10
2015,05,26,17,42,19.10
2015,05,26,17,43,19.10
2015,05,26,17,44,19.10
2015,05,26,17,45,19.10
2015,05,26,17,46,19.10
2015,05,26,17,47,19.10
2015,05,26,17,48,19.10
2015,05,26,17,49,19.10
2015,05,26,17,50,19.10
2015,05,26,17,51,19.00
2015,05,26,17,52,18.90
2015,05,26,17,53,18.90
2015,05,26,17,54,18.90
2015,05,26,17,55,18.90
2015,05,26,17,56,18.90
2015,05,26,17,57,18.80
2015,05,26,17,58,18.80
2015,05,26,17,59,18.80
2015,05,26,18,00,18.80
2015,05,26,18,01,18.70
2015,05,26,18,02,18.70
2015,05,26,18,03,18.70
2015,05,26,18,04,18.70
2015,05,26,18,05,18.70
2015,05,26,18,06,18.80
2015,05,26,18,07,19.00
2015,05,26,18,08,19.10
2015,05,26,18,09,19.10
2015,05,26,18,10,19.10
2015,05,26,18,11,19.10
2015,05,26,18,12,19.10
2015,05,26,18,13,19.10
2015,05,26,18,14,19.00
2015,05,26,18,15,18.90
2015,05,26,18,16,19.00
2015,05,26,18,17,19.10
2015,05,26,18,18,19.10
2015,05,26,18,19,19.10
2015,05,26,18,20,19.10
2015,05,26,18,21,19.10
2015,05,26,18,22,19.00
2015,05,26,18,23,18.90
2015,05,26,18,24,18.90
2015,05,26,18,25,18.90
2015,05,26,18,26,18.90
2015,05,26,18,27,18.90
2015,05,26,18,28,18.90
2015,05,26,18,29,18.80
2015,05,26,18,30,18.80
2015,05,26,18,31,18.80
2015,05,26,18,32,18.70
2015,05,26,18,33,18.70
2015,05,26,18,34,18.80
2015,05,26,18,35,18.80
2015,05,26,18,36,18.90
2015,05,26,18,37,18.90
2015,05,26,18,38,18.90
2015,05,26,18,39,18.90
2015,05,26,18,40,18.90
2015,05,26,18,41,18.90
2015,05,26,18,42,18.90
2015,05,26,18,43,18.80
2015,05,26,18,44,18.80
2015,05,26,18,45,18.70
2015,05,26,18,46,18.70
2015,05,26,18,47,18.60
2015,05,26,18,48,18.50
2015,05,26,18,49,18.40
2015,05,26,18,50,18.30
2015,05,26,18,51,18.20
2015,05,26,18,52,18.20
2015,05,26,18,53,18.20
2015,05,26,18,54,18.20
2015,05,26,18,55,18.20
2015,05,26,18,56,18.20
2015,05,26,18,57,18.20
2015,05,26,18,58,18.20
2015,05,26,18,59,18.10
2015,05,26,19,00,18.10
2015,05,26,19,01,18.10
2015,05,26,19,02,18.10
2015,05,26,19,03,18.20
2015,05,26,19,04,18.20
2015,05,26,19,05,18.30
2015,05,26,19,06,18.40
2015,05,26,19,07,18.40
2015,05,26,19,08,18.40
2015,05,26,19,09,18.40
2015,05,26,19,10,18.40
2015,05,26,19,11,18.30
2015,05,26,19,12,18.30
2015,05,26,19,13,18.20
2015,05,26,19,14,18.20
2015,05,26,19,15,18.20
2015,05,26,19,16,18.20
2015,05,26,19,17,18.10
2015,05,26,19,18,18.10
2015,05,26,19,19,17.90
2015,05,26,19,20,17.80
2015,05,26,19,21,17.70
2015,05,26,19,22,17.60
2015,05,26,19,23,17.60
2015,05,26,19,24,17.50
2015,05,26,19,25,17.40
2015,05,26,19,26,17.40
2015,05,26,19,27,17.30
2015,05,26,19,28,17.30
2015,05,26,19,29,17.30
2015,05,26,19,30,17.30
2015,05,26,19,31,17.30
2015,05,26,19,32,17.30
2015,05,26,19,33,17.30
2015,05,26,19,34,17.30
2015,05,26,19,35,17.30
2015,05,26,19,36,17.30
2015,05,26,19,37,17.30
2015,05,26,19,38,17.30
2015,05,26,19,39,17.30
2015,05,26,19,40,17.30
2015,05,26,19,41,17.30
2015,05,26,19,42,17.30
2015,05,26,19,43,17.30
2015,05,26,19,44,17.20
2015,05,26,19,45,17.20
2015,05,26,19,46,17.20
2015,05,26,19,47,17.20
2015,05,26,19,48,17.10
2015,05,26,19,49,17.10
2015,05,26,19,50,17.00
2015,05,26,19,51,17.00
2015,05,26,19,52,16.90
2015,05,26,19,53,16.90
2015,05,26,19,54,16.80
2015,05,26,19,55,16.70
2015,05,26,19,56,16.70
2015,05,26,19,57,16.70
2015,05,26,19,58,16.70
2015,05,26,19,59,16.70
2015,05,26,20,00,16.60
2015,05,26,20,01,16.60
2015,05,26,20,02,16.60
2015,05,26,20,03,16.60
2015,05,26,20,04,16.50
2015,05,26,20,05,16.40
2015,05,26,20,06,16.40
2015,05,26,20,07,16.40
2015,05,26,20,08,16.40
2015,05,26,20,09,16.30
2015,05,26,20,10,16.30
2015,05,26,20,11,16.30
2015,05,26,20,12,16.20
2015,05,26,20,13,16.20
2015,05,26,20,14,16.20
2015,05,26,20,15,16.20
2015,05,26,20,16,16.20
2015,05,26,20,17,16.20
2015,05,26,20,18,16.20
2015,05,26,20,19,16.20
2015,05,26,20,20,16.20
2015,05,26,20,21,16.10
2015,05,26,20,22,16.10
2015,05,26,20,23,16.10
2015,05,26,20,24,16.10
2015,05,26,20,25,16.10
2015,05,26,20,26,16.10
2015,05,26,20,27,16.10
2015,05,26,20,28,16.10
2015,05,26,20,29,16.00
2015,05,26,20,30,15.90
2015,05,26,20,31,15.90
2015,05,26,20,32,15.90
2015,05,26,20,33,15.80
2015,05,26,20,34,15.80
2015,05,26,20,35,15.80
2015,05,26,20,36,15.80
2015,05,26,20,37,15.80
2015,05,26,20,38,15.80
2015,05,26,20,39,15.80
2015,05,26,20,40,15.80
2015,05,26,20,41,15.80
2015,05,26,20,42,15.80
2015,05,26,20,43,15.80
2015,05,26,20,44,15.80
2015,05,26,20,45,15.80
2015,05,26,20,46,15.80
2015,05,26,20,47,15.80
2015,05,26,20,48,15.80
2015,05,26,20,49,15.80
2015,05,26,20,50,15.70
2015,05,26,20,51,15.70
2015,05,26,20,52,15.60
2015,05,26,20,53,15.60
2015,05,26,20,54,15.50
2015,05,26,20,55,15.50
2015,05,26,20,56,15.50
2015,05,26,20,57,15.40
2015,05,26,20,58,15.40
2015,05,26,20,59,15.40
2015,05,26,21,00,15.40
2015,05,26,21,01,15.30
2015,05,26,21,02,15.30
2015,05,26,21,03,15.30
2015,05,26,21,04,15.30
2015,05,26,21,05,15.30
2015,05,26,21,06,15.30
2015,05,26,21,07,15.30
2015,05,26,21,08,15.30
2015,05,26,21,09,15.30
2015,05,26,21,10,15.30
2015,05,26,21,11,15.30
2015,05,26,21,12,15.30
2015,05,26,21,13,15.30
2015,05,26,21,14,15.30
